| time (UTC) | temp C | wind direction | speed KPH | gust KPH | rain 1hr cm | rain 24hr cm | rain mn cm | humidity % | barometer mb |
| 20260506062030 | 10 | 50 | 1.6 | 1.6 | 0.00 | 0.28 | 0.00 | 97 | 1006.7 |
| 20260506061030 | 10 | 0.0 | 3.2 | 0.00 | 0.28 | 0.00 | 97 | 1006.7 | |
| 20260506051030 | 8 | 29 | 1.6 | 3.2 | 0.00 | 0.28 | 0.00 | 97 | 1007.0 |
| 20260506045031 | 8 | 36 | 1.6 | 3.2 | 0.00 | 0.28 | 0.00 | 97 | 1007.1 |
| 20260506044031 | 8 | 37 | 1.6 | 4.8 | 0.00 | 0.28 | 0.00 | 97 | 1007.0 |
| 20260506043031 | 8 | 35 | 1.6 | 4.8 | 0.00 | 0.28 | 0.00 | 97 | 1007.0 |
| 20260506042030 | 8 | 0.0 | 0.0 | 0.00 | 0.28 | 0.00 | 97 | 1007.1 | |
| 20260506041031 | 9 | 0.0 | 1.6 | 0.00 | 0.28 | 0.00 | 97 | 1007.3 | |
| 20260506040030 | 9 | 39 | 0.0 | 1.6 | 0.00 | 0.28 | 0.00 | 97 | 1007.3 |
| 20260506035030 | 9 | 0.0 | 0.0 | 0.00 | 0.28 | 0.00 | 98 | 1007.3 | |
| 20260506034030 | 9 | 36 | 0.0 | 3.2 | 0.00 | 0.28 | 0.00 | 97 | 1007.3 |
| 20260506033030 | 9 | 39 | 1.6 | 3.2 | 0.00 | 0.28 | 0.00 | 97 | 1007.4 |
| 20260506032030 | 10 | 36 | 1.6 | 3.2 | 0.00 | 0.28 | 0.00 | 97 | 1007.4 |
| 20260506031030 | 10 | 27 | 1.6 | 3.2 | 0.00 | 0.28 | 0.00 | 98 | 1007.6 |
| 20260506030031 | 10 | 0.0 | 0.0 | 0.00 | 0.28 | 0.00 | 98 | 1007.7 | |
| 20260506025031 | 10 | 34 | 1.6 | 3.2 | 0.00 | 0.28 | 0.00 | 98 | 1007.8 |
| 20260506024030 | 10 | 0.0 | 0.0 | 0.00 | 0.28 | 0.00 | 98 | 1008.0 | |
| 20260506021030 | 9 | 34 | 0.0 | 3.2 | 0.00 | 0.28 | 0.00 | 98 | 1008.1 |
| 20260506020031 | 9 | 0.0 | 1.6 | 0.00 | 0.28 | 0.00 | 98 | 1008.2 | |
| 20260506015030 | 8 | 42 | 0.0 | 3.2 | 0.00 | 0.28 | 0.00 | 98 | 1008.5 |
| 20260506014031 | 8 | 42 | 0.0 | 1.6 | 0.00 | 0.28 | 0.00 | 98 | 1008.4 |
| 20260506013030 | 8 | 0.0 | 1.6 | 0.00 | 0.28 | 0.00 | 98 | 1008.5 | |
| 20260506012030 | 8 | 36 | 1.6 | 3.2 | 0.00 | 0.28 | 0.00 | 98 | 1008.8 |
| 20260506011030 | 8 | 35 | 0.0 | 3.2 | 0.00 | 0.28 | 0.00 | 98 | 1008.7 |
| 20260506010031 | 8 | 34 | 0.0 | 3.2 | 0.00 | 0.28 | 0.00 | 98 | 1008.6 |
| 20260506005030 | 8 | 31 | 1.6 | 4.8 | 0.00 | 0.28 | 0.00 | 98 | 1008.5 |
| 20260506004030 | 8 | 26 | 0.0 | 3.2 | 0.00 | 0.28 | 0.00 | 98 | 1008.6 |
| 20260506003030 | 8 | 32 | 1.6 | 3.2 | 0.00 | 0.28 | 0.00 | 98 | 1008.8 |
| 20260506002030 | 8 | 0.0 | 1.6 | 0.00 | 0.28 | 0.00 | 98 | 1008.9 | |
| 20260506001029 | 8 | 53 | 0.0 | 1.6 | 0.00 | 0.28 | 0.00 | 98 | 1009.0 |
| 20260506000030 | 8 | 32 | 0.0 | 3.2 | 0.00 | 0.28 | 0.00 | 98 | 1009.1 |
| 20260505235030 | 8 | 39 | 1.6 | 4.8 | 0.00 | 0.28 | 0.00 | 98 | 1009.1 |
| 20260505234030 | 8 | 34 | 0.0 | 3.2 | 0.00 | 0.28 | 0.00 | 98 | 1009.2 |
| 20260505233030 | 7 | 41 | 0.0 | 1.6 | 0.00 | 0.28 | 0.00 | 98 | 1009.3 |
| 20260505232030 | 8 | 36 | 0.0 | 3.2 | 0.00 | 0.28 | 0.00 | 98 | 1009.3 |
| 20260505231030 | 8 | 42 | 0.0 | 3.2 | 0.00 | 0.28 | 0.00 | 98 | 1009.3 |
| 20260505230031 | 8 | 40 | 0.0 | 3.2 | 0.00 | 0.28 | 0.00 | 98 | 1009.4 |
| 20260505225031 | 8 | 38 | 1.6 | 3.2 | 0.00 | 0.28 | 0.00 | 98 | 1009.5 |
| 20260505224030 | 8 | 37 | 1.6 | 4.8 | 0.00 | 0.28 | 0.00 | 98 | 1009.5 |
| 20260505223031 | 8 | 40 | 0.0 | 3.2 | 0.00 | 0.28 | 0.00 | 97 | 1009.5 |
| 20260505222031 | 8 | 46 | 0.0 | 1.6 | 0.00 | 0.28 | 0.00 | 97 | 1009.5 |
| 20260505221030 | 8 | 40 | 0.0 | 3.2 | 0.00 | 0.28 | 0.00 | 97 | 1009.6 |
| 20260505220030 | 8 | 34 | 1.6 | 3.2 | 0.00 | 0.28 | 0.28 | 97 | 1009.5 |
| 20260505215030 | 9 | 37 | 1.6 | 4.8 | 0.00 | 0.28 | 0.28 | 97 | 1009.5 |
| 20260505214030 | 8 | 39 | 1.6 | 3.2 | 0.00 | 0.28 | 0.28 | 97 | 1009.7 |
| 20260505213030 | 9 | 37 | 1.6 | 3.2 | 0.00 | 0.28 | 0.28 | 97 | 1009.5 |
| 20260505212029 | 9 | 35 | 1.6 | 3.2 | 0.00 | 0.28 | 0.28 | 96 | 1009.6 |
| 20260505211029 | 10 | 43 | 0.0 | 3.2 | 0.00 | 0.28 | 0.28 | 97 | 1009.6 |
| 20260505210030 | 10 | 43 | 0.0 | 3.2 | 0.00 | 0.28 | 0.28 | 97 | 1009.6 |
| 20260505205030 | 10 | 40 | 1.6 | 3.2 | 0.00 | 0.28 | 0.28 | 96 | 1009.7 |
| 20260505204031 | 11 | 0.0 | 1.6 | 0.00 | 0.28 | 0.28 | 97 | 1009.7 | |
| 20260505203030 | 11 | 29 | 1.6 | 3.2 | 0.00 | 0.28 | 0.28 | 97 | 1009.6 |
| 20260505202030 | 10 | 24 | 0.0 | 1.6 | 0.00 | 0.28 | 0.28 | 97 | 1009.5 |
| 20260505201030 | 10 | 33 | 0.0 | 1.6 | 0.00 | 0.28 | 0.28 | 96 | 1009.3 |
| 20260505200030 | 10 | 35 | 1.6 | 3.2 | 0.00 | 0.28 | 0.28 | 96 | 1009.2 |
| 20260505195030 | 11 | 37 | 1.6 | 3.2 | 0.00 | 0.28 | 0.28 | 96 | 1009.1 |
| 20260505194030 | 11 | 23 | 0.0 | 1.6 | 0.00 | 0.28 | 0.28 | 95 | 1009.0 |
| 20260505193030 | 11 | 27 | 1.6 | 3.2 | 0.00 | 0.28 | 0.28 | 95 | 1009.1 |
| 20260505192030 | 11 | 37 | 0.0 | 1.6 | 0.05 | 0.28 | 0.28 | 95 | 1009.0 |
| 20260505191030 | 12 | 28 | 0.0 | 3.2 | 0.05 | 0.28 | 0.28 | 95 | 1008.9 |
| 20260505190031 | 12 | 39 | 1.6 | 4.8 | 0.05 | 0.28 | 0.28 | 94 | 1008.9 |
| 20260505185031 | 12 | 0.0 | 0.0 | 0.05 | 0.28 | 0.28 | 93 | 1008.7 | |
| 20260505184031 | 12 | 38 | 0.0 | 3.2 | 0.05 | 0.28 | 0.28 | 92 | 1008.7 |
| 20260505183031 | 13 | 57 | 0.0 | 3.2 | 0.05 | 0.28 | 0.28 | 91 | 1008.8 |
| 20260505182030 | 13 | 22 | 0.0 | 4.8 | 0.00 | 0.23 | 0.23 | 91 | 1008.8 |
| 20260505181031 | 13 | 0.0 | 0.0 | 0.00 | 0.23 | 0.23 | 91 | 1008.7 | |
| 20260505180030 | 13 | 30 | 0.0 | 3.2 | 0.00 | 0.23 | 0.23 | 91 | 1008.4 |
| 20260505175030 | 13 | 31 | 3.2 | 6.4 | 0.00 | 0.25 | 0.23 | 90 | 1008.5 |
| 20260505174030 | 13 | 40 | 0.0 | 3.2 | 0.00 | 0.25 | 0.23 | 90 | 1008.3 |
| 20260505173030 | 13 | 13 | 1.6 | 4.8 | 0.00 | 0.25 | 0.23 | 90 | 1008.4 |
| 20260505172030 | 14 | 33 | 1.6 | 4.8 | 0.00 | 0.28 | 0.23 | 90 | 1008.3 |
| 20260505171030 | 14 | 30 | 3.2 | 6.4 | 0.00 | 0.28 | 0.23 | 90 | 1008.2 |
| 20260505170030 | 14 | 0.0 | 1.6 | 0.00 | 0.28 | 0.23 | 90 | 1008.4 | |
| 20260505165030 | 13 | 25 | 1.6 | 4.8 | 0.00 | 0.28 | 0.23 | 88 | 1008.3 |
| 20260505164031 | 14 | 27 | 1.6 | 1.6 | 0.00 | 0.28 | 0.23 | 89 | 1008.3 |
| 20260505163030 | 14 | 0.0 | 0.0 | 0.00 | 0.28 | 0.23 | 91 | 1008.2 | |
| 20260505162030 | 14 | 0.0 | 1.6 | 0.00 | 0.28 | 0.23 | 90 | 1008.4 | |
| 20260505161030 | 13 | 0.0 | 0.0 | 0.00 | 0.28 | 0.23 | 92 | 1008.4 | |
| 20260505153030 | 13 | 0.0 | 1.6 | 0.23 | 0.28 | 0.23 | 92 | 1008.3 | |
| 20260505152030 | 13 | 0.0 | 0.0 | 0.23 | 0.28 | 0.23 | 91 | 1008.4 | |
| 20260505151030 | 13 | 0.0 | 0.0 | 0.23 | 0.28 | 0.23 | 88 | 1008.5 | |
| 20260505125030 | 15 | 225 | 0.0 | 1.6 | 0.00 | 0.05 | 0.00 | 80 | 1008.4 |
| 20260505124030 | 15 | 226 | 0.0 | 3.2 | 0.00 | 0.05 | 0.00 | 80 | 1008.5 |
| 20260505123030 | 15 | 201 | 1.6 | 3.2 | 0.00 | 0.05 | 0.00 | 82 | 1008.6 |
| 20260505122030 | 15 | 187 | 1.6 | 4.8 | 0.00 | 0.05 | 0.00 | 84 | 1008.6 |
| 20260505121030 | 15 | 199 | 1.6 | 3.2 | 0.00 | 0.05 | 0.00 | 84 | 1008.7 |
| 20260505120031 | 15 | 207 | 1.6 | 4.8 | 0.00 | 0.05 | 0.00 | 85 | 1008.8 |
| 20260505115031 | 15 | 204 | 1.6 | 4.8 | 0.00 | 0.05 | 0.00 | 84 | 1008.8 |
| 20260505114030 | 15 | 198 | 1.6 | 4.8 | 0.00 | 0.05 | 0.00 | 83 | 1008.9 |
| 20260505113031 | 15 | 211 | 1.6 | 3.2 | 0.00 | 0.05 | 0.00 | 84 | 1008.9 |
| 20260505112030 | 15 | 187 | 3.2 | 4.8 | 0.00 | 0.05 | 0.00 | 84 | 1009.1 |
| 20260505111030 | 15 | 173 | 3.2 | 9.7 | 0.00 | 0.05 | 0.00 | 83 | 1009.1 |
| 20260505102030 | 14 | 175 | 3.2 | 4.8 | 0.00 | 0.05 | 0.00 | 82 | 1009.2 |
| 20260505101030 | 14 | 187 | 1.6 | 4.8 | 0.00 | 0.05 | 0.00 | 83 | 1009.2 |
| 20260505100031 | 14 | 198 | 1.6 | 4.8 | 0.00 | 0.05 | 0.00 | 84 | 1009.2 |
| 20260505095030 | 14 | 191 | 1.6 | 3.2 | 0.00 | 0.05 | 0.00 | 83 | 1009.1 |
| 20260505094030 | 14 | 126 | 0.0 | 1.6 | 0.00 | 0.05 | 0.00 | 81 | 1009.1 |
| 20260505093030 | 14 | 211 | 0.0 | 3.2 | 0.00 | 0.05 | 0.00 | 83 | 1009.3 |
| 20260505092030 | 14 | 222 | 1.6 | 3.2 | 0.00 | 0.05 | 0.00 | 81 | 1009.4 |
| 20260505091030 | 14 | 212 | 1.6 | 3.2 | 0.00 | 0.05 | 0.00 | 83 | 1009.4 |
| 20260505090031 | 14 | 194 | 1.6 | 3.2 | 0.00 | 0.05 | 0.00 | 82 | 1009.5 |
| 20260505085031 | 14 | 206 | 0.0 | 1.6 | 0.00 | 0.05 | 0.00 | 81 | 1009.6 |
| 20260505084030 | 13 | 180 | 1.6 | 3.2 | 0.00 | 0.05 | 0.00 | 81 | 1009.7 |
| 20260505083030 | 13 | 199 | 3.2 | 3.2 | 0.00 | 0.05 | 0.00 | 81 | 1009.8 |
| 20260505082031 | 13 | 239 | 0.0 | 1.6 | 0.00 | 0.05 | 0.00 | 80 | 1009.7 |
| 20260505081030 | 13 | 227 | 1.6 | 3.2 | 0.00 | 0.05 | 0.00 | 80 | 1009.8 |
| 20260505080030 | 13 | 228 | 0.0 | 1.6 | 0.00 | 0.05 | 0.00 | 80 | 1009.9 |
| 20260505075030 | 13 | 229 | 0.0 | 1.6 | 0.00 | 0.05 | 0.00 | 81 | 1009.9 |
| 20260505074030 | 13 | 147 | 0.0 | 1.6 | 0.00 | 0.05 | 0.00 | 81 | 1010.0 |
| 20260505073030 | 12 | 0.0 | 0.0 | 0.00 | 0.05 | 0.00 | 84 | 1010.2 | |
| 20260505072030 | 12 | 0.0 | 0.0 | 0.00 | 0.05 | 0.00 | 85 | 1010.1 | |
| 20260505071030 | 12 | 121 | 0.0 | 1.6 | 0.00 | 0.05 | 0.00 | 88 | 1010.2 |
| 20260505070031 | 11 | 183 | 0.0 | 3.2 | 0.00 | 0.05 | 0.00 | 90 | 1010.3 |